Location: Celina Division
(33.3022°N, 96.7580°W)
Time: 14:06:28
(UTC+00:00)

SL-4 R/B - Pass Details

Date: 08 December 2021
Orbit: 427 x 660 km, 51.6° (Epoch: 29 January)

Event Time Altitude Azimuth Distance (km) Brightness Sun altitude
Exits shadow 12:27:51 14° 271° (W) 1,313 3.4 -10.5°
Maximum altitude 12:30:10 27° 325° (NW) 893 2.6 -10.1°
Drops below altitude 10° 12:33:18 10° 25° (NNE) 1,621 4.5 -9.5°
Sets 12:35:45 0° 37° (NE) 2,541 5.6 -9.0°
